Simultaneous Nadir Overpasses (SNOs) Predictions

Prediction of SNOs between AURA and NPP Satellite Orbit:

Table of predicted SNOs for the next 14.0 days since TLE Epoch: 1/5/2019
Index Date (AURA) Time (AURA) Lat,Lon (AURA) SZA (AURA ) Date (NPP) Time (NPP) Lat,Lon (NPP) SZA (NPP ) Distance(km) Time Diff (sec)
1 01/06/2019 19:08:29 -79.54, -29.97 65.34 01/06/2019 19:08:03 -79.53, -30.11 65.29 3.08 26
2 01/06/2019 19:57:49 79.76, 139.31 114.34 01/06/2019 19:58:40 79.76, 139.23 114.32 1.57 51
3 01/09/2019 11:24:55 -79.67, 86.86 65.83 01/09/2019 11:24:53 -79.68, 86.91 65.83 1.08 2
4 01/09/2019 12:13:05 81.64, -79.26 110.09 01/09/2019 12:14:18 81.27, -78.62 109.85 42.62 73
5 01/12/2019 02:52:01 79.54, 34.11 114.03 01/12/2019 02:51:06 79.54, 34.22 114.05 2.25 55
6 01/12/2019 03:41:23 -79.73,-156.85 66.26 01/12/2019 03:41:46 -79.72,-156.89 66.27 0.82 23
7 01/14/2019 19:08:29 79.59, 150.35 113.56 01/14/2019 19:07:59 79.59, 150.39 113.57 0.98 30
8 01/14/2019 19:57:51 -79.78, -40.58 66.73 01/14/2019 19:58:39 -79.77, -40.70 66.75 2.37 48
9 01/17/2019 11:24:55 79.67, -93.16 112.98 01/17/2019 11:24:50 79.67, -93.16 112.99 0.15 5




NCC Satellite Simultaneous Nadir Overpasses (SNOs) Prediction Service
